Regional Weather Roundup
Issued by NWS

Home | Current Version | Previous Version | Graphics & Text | Print | Product List | Glossary On
Versions: 1 2 3 4 5 6 7 8 9 10 11 12 13 14 15 16 17 18 19 20 21 22 23 24 25 26 27 28 29 30 31 32 33 34 35 36 37 38 39 40 41 42 43 44 45 46 47 48 49 50
000
ASUS43 KBIS 202220
RWRND

NORTH DAKOTA REGIONAL WEATHER ROUNDUP
NATIONAL WEATHER SERVICE BISMARCK ND
500 PM CDT MON OCT 20 2014

NOTE: "FAIR" INDICATES FEW OR NO CLOUDS BELOW 12,000 FEET WITH NO
SIGNIFICANT WEATHER AND/OR OBSTRUCTIONS TO VISIBILITY.


NDZ001>003-009>011-017-202300-
NORTHWEST NORTH DAKOTA

CITY           SKY/WX    TMP DP  RH WIND       PRES   REMARKS
WILLISTON      SUNNY     77  41  27 S8        29.83F
MINOT          SUNNY     71  36  27 SE13G21   29.91F
MINOT AFB      SUNNY     70  38  31 S14       29.90F
$$

NDZ018>021-031>035-040>046-202300-
SOUTHWEST NORTH DAKOTA

CITY           SKY/WX    TMP DP  RH WIND       PRES   REMARKS
BISMARCK       SUNNY     72  34  24 S17       29.96F
DICKINSON      SUNNY     72  42  34 S17G28    29.89S
GARRISON         N/A     71  41  33 S13       29.92F
HETTINGER ARPT SUNNY     73  40  30 SE16      29.93F
$$

NDZ004>008-012>016-024-026-027-054-202300-
NORTHEAST NORTH DAKOTA

CITY           SKY/WX    TMP DP  RH WIND       PRES   REMARKS
GRAND FORKS    SUNNY     59  42  53 E3        30.02F
GRND FRKS AFB  SUNNY     59  44  56 SE5       30.03S
DEVILS LAKE    SUNNY     64  43  45 SE7       29.98S
$$

NDZ022-023-025-028>030-036>039-047>053-202300-
SOUTHEAST NORTH DAKOTA

CITY           SKY/WX    TMP DP  RH WIND       PRES   REMARKS
FARGO          SUNNY     63  43  48 NE7       30.02F
JAMESTOWN      SUNNY     68  38  33 SE6       29.99F
$$




USA.gov is the U.S. government's official web portal to all federal, state and local government web resources and services.